Regional Weather Roundup
Issued by NWS

Home | Current Version | Previous Version | Graphics & Text | Print | Product List | Glossary On
Versions: 1 2 3 4 5 6 7 8 9 10 11 12 13 14 15 16 17 18 19 20 21 22 23 24 25 26 27
000
ASUS45 KPSR 091910
RWRAZ

ARIZONA HOURLY REGIONAL WEATHER ROUNDUP
NATIONAL WEATHER SERVICE PHOENIX AZ
1200 PM MST FRI DEC 09 2016

NOTE: FAIR INDICATES FEW OR NO CLOUDS BELOW 12,000 FEET WITH NO
SIGNIFICANT WEATHER AND/OR OBSTRUCTIONS TO VISIBILITY.

AZZ001>003-036-092000-
NORTHWEST ARIZONA

CITY           SKY/WX    TMP DP  RH WIND       PRES   REMARKS
BULLHEAD CITY  CLOUDY    61  16  17 N14       30.28F
KINGMAN        PTSUNNY   58  28  32 W3        30.28F
$$

AZZ004>008-015-016-018-092000-
NORTH CENTRAL ARIZONA

CITY           SKY/WX    TMP DP  RH WIND       PRES   REMARKS
GRAND CANYON   CLOUDY    42  36  79 SW6       30.32F
WILLIAMS       MOSUNNY   50  34  53 W3        30.32F
PRESCOTT       MOSUNNY   51  33  50 CALM      30.31F
FLAGSTAFF      SUNNY     47  34  60 S10       30.32F
PAYSON         SUNNY     52  32  46 CALM      30.34F
PAGE           PTSUNNY   42   7  23 CALM      30.31F
$$

AZZ009>014-017-092000-
NORTHEAST ARIZONA

CITY           SKY/WX    TMP DP  RH WIND       PRES   REMARKS
WINSLOW        SUNNY     50  30  46 VRB3      30.31F
SAINT JOHNS    SUNNY     53  27  36 VRB3      30.29F
WINDOW ROCK    SUNNY     50  29  44 VRB3      30.31F
SHOW LOW       MOSUNNY   52  27  37 S12       30.32F
$$

AZZ023-092000-
GREATER PHOENIX AREA

CITY           SKY/WX    TMP DP  RH WIND       PRES   REMARKS
PHOENIX        MOSUNNY   68  37  32 E9        30.23F
BUCKEYE        SUNNY     64  37  36 E10       30.24F
GLENDALE       MOSUNNY   63  39  42 CALM      30.26F
LUKE AFB       SUNNY     63  38  39 CALM      30.23F
DEER VALLEY    SUNNY     64  38  38 SW5       30.23F
SCOTTSDALE     SUNNY     64  37  36 CALM      30.24F
MESA-GATEWAY   MOSUNNY   61  37  41 SW3       30.25F
CHANDLER       MOSUNNY   63  39  42 W7        30.24F
$$

AZZ027-028-092000-
SOUTHWEST MARICOPA COUNTY AND PINAL COUNTY

CITY           SKY/WX    TMP DP  RH WIND       PRES   REMARKS
CASA GRANDE    NOT AVBL
GILA BEND      SUNNY     65  40  38 N7        30.21F
$$

AZZ503-504-507>509-092000-
SOUTHEAST ARIZONA

CITY           SKY/WX    TMP DP  RH WIND       PRES   REMARKS
TUCSON         SUNNY     66  35  31 N6        30.24F
DAVIS-MONTHAN  SUNNY     64  34  32 VRB2      30.22F
RYAN FIELD     SUNNY     64  36  34 E8        30.25F
NOGALES        SUNNY     67  31  26 VRB3      30.23F
SIERRA VISTA   SUNNY     62  32  32 E7        30.29F
DOUGLAS        SUNNY     56  34  43 S5        30.28F
SAFFORD        SUNNY     53  31  42 S9        30.32F
$$

AZZ020-021-025-026-031-092000-
SOUTHWEST ARIZONA

CITY           SKY/WX    TMP DP  RH WIND       PRES   REMARKS
YUMA           PTSUNNY   66  21  18 NE9       30.23F
$$

CAZ031-033-041-043-047-048-061-092000-
SOUTHERN CALIFORNIA

CITY           SKY/WX    TMP DP  RH WIND       PRES   REMARKS
DOWNTOWN L.A.  CLOUDY    59  47  64 VRB3      30.26F
L.A. AIRPORT   PTSUNNY   61  50  67 E6        30.26F
SAN DIEGO      PTSUNNY   64  52  64 NW6       30.27F
BURBANK        PTSUNNY   58  48  69 SE6       30.26S
ONTARIO        CLOUDY    58  42  55 CALM      30.26F HAZE
RIVERSIDE      CLOUDY    60  45  57 CALM      30.26F
PALM SPRINGS   MOSUNNY   65  37  35 VRB3      30.25F
EL CENTRO NAS  PTSUNNY   65  27  23 N7        30.26F
IMPERIAL       MOSUNNY   65  34  31 N5        30.24F
BLYTHE         MOSUNNY   62  13  14 CALM      30.25F
NEEDLES        PTSUNNY   61  16  17 CALM      30.28F
$$

NVZ020-UTZ003-092000-
SOUTHERN NEVADA-UTAH

CITY           SKY/WX    TMP DP  RH WIND       PRES   REMARKS
LAS VEGAS      CLOUDY    52  10  18 CALM      30.29F
SALT LAKE CITY CLOUDY    38  31  76 CALM      30.19F
$$

NMZ009-TXZ055-092000-
NEW MEXICO-WEST TEXAS

CITY           SKY/WX    TMP DP  RH WIND       PRES   REMARKS
ALBUQUERQUE    PTSUNNY   38  26  62 SW8       30.34F WCI  32
EL PASO        CLOUDY    38  28  67 E5        30.40F WCI  34
$$


........................KEY........................
SKY/WX - SKY CONDITION/WEATHER
TMP    - TEMPERATURE IN FAHRENHEIT
DP     - DEW POINT IN FAHRENHEIT
RH     - RELATIVE HUMIDITY IN PERCENT
WIND   - DIRECTION AND SPEED IN MILES PER HOUR (MPH)
VRB    - VARIABLE WIND DIRECTION
PRES   - MEAN SEA LEVEL PRESSURE IN INCHES OF MERCURY
         F - FALLING PRESSURE   R - RISING PRESSURE
         S - STEADY PRESSURE
VSB    - VISIBILITY IN MILES
HX     - HEAT INDEX IN FAHRENHEIT
WCI    - WIND CHILL INDEX IN FAHRENHEIT
TC     - TEMPERATURE IN CELSIUS WHICH IS ALSO KNOWN AS
         TEMPERATURE IN CENTIGRADE
AFB    - AIR FORCE BASE
         LUKE AFB IS LUKE AIR FORCE BASE
         DAVIS-MONTHAN IS DAVIS-MONTHAN AIR FORCE BASE
NAS    - NAVAL AIR STATION
         EL CENTRO NAS IS EL CENTRO NAVAL AIR STATION
N/A    - NOT AVAILABLE





USA.gov is the U.S. government's official web portal to all federal, state and local government web resources and services.